Home > Weather > Male > Past weeks

Flag for Maldives Weather for the Past 2 Weeks in Male, Maldives

Now
86 °F

Broken clouds.


Feels Like: 97 °F
Forecast: 86 / 91 °F
Wind: 10 mph from Southwest

Location: Male Airport

Current Time: May 6, 2016 at 7:44:57 AM

Latest Report: May 6, 2016 at 7:00 AM


Visibility: N/A

Pressure: 29.80 "Hg

Humidity: 75%

Dew Point: 77 °F

Location of MaleLocation

Historic Weather in Male — Graph

°F

Male Temperature Yesterday

Maximum temperature yesterday: 88 °F (at 1:00 PM)
Minimum temperature yesterday: 82 °F (at 4:00 AM)
Average temperature yesterday: 86 °F

High & Low Weather Summary for the Past Weeks

 TemperatureHumidityPressure
High93 °F (Apr 29, 12:00 PM)100% (Apr 22, 12:00 PM)29.92 "Hg (Apr 22, 12:00 PM)
Low79 °F (Apr 22, 12:00 PM)63% (Apr 29, 10:00 AM)29.53 "Hg (Apr 30, 4:00 PM)
Average87 °F76%29.80 "Hg
* Reported Apr 21 6:00 AM — May 6 6:00 AM, Male, Weather by CustomWeather, © 2016

Note: Actual official high and low records may vary slightly from our data, if they occured in-between our weather recording intervals... More about our weather records

Advertising

Male Weather History for the Previous 24 Hours

Scroll right to see more
 ConditionsComfort  
Time TempWeatherWind HumidityBarometerVisibility
6:00 AM
Fri, May 6
86 °FPartly sunny.5 mph79%29.80 "HgN/A
5:00 AM86 °FPassing clouds.7 mph75%29.77 "HgN/A
4:00 AM84 °FPassing clouds.7 mph79%29.77 "HgN/A
3:00 AM86 °FPartly cloudy.7 mph79%29.77 "HgN/A
2:00 AM86 °FPassing clouds.6 mph79%29.80 "HgN/A
1:00 AM86 °FPassing clouds.6 mph75%29.80 "HgN/A
12:00 AM86 °FPassing clouds.7 mph79%29.83 "HgN/A
11:00 PM
Thu, May 5
86 °FPassing clouds.7 mph79%29.86 "HgN/A
10:00 PM86 °FPassing clouds.9 mph79%29.83 "HgN/A
9:00 PM86 °FPassing clouds.10 mph79%29.83 "HgN/A
8:00 PM86 °FPassing clouds.N/A79%29.80 "HgN/A
7:00 PM86 °FPartly cloudy.13 mph79%29.80 "HgN/A
6:00 PM86 °FBroken clouds.15 mph75%29.80 "HgN/A
5:00 PM88 °FBroken clouds.15 mph70%29.77 "HgN/A
4:00 PM88 °FBroken clouds.14 mph75%29.77 "HgN/A
3:00 PM86 °FPartly sunny.13 mph79%29.77 "HgN/A
2:00 PM86 °FBroken clouds.15 mph79%29.80 "HgN/A
1:00 PM88 °FBroken clouds.6 mph79%29.80 "HgN/A
12:00 PM86 °FPartly sunny.3 mph79%29.83 "HgN/A
11:00 AM84 °FBroken clouds.5 mph84%29.86 "HgN/A
10:00 AM84 °FBroken clouds.7 mph74%29.86 "HgN/A
9:00 AM82 °FLight rain. Scattered clouds.10 mph84%29.86 "Hg6 mi
8:00 AM84 °FPartly sunny.8 mph84%29.83 "HgN/A
7:00 AM84 °FThunderstorms. Partly sunny.13 mph79%29.80 "HgN/A
Weather by CustomWeather, © 2016

See weather overviewHow to use our weather pages